Home   Weather   Omaha   Past weeks

Flag for USA Past Weather in Omaha, Nebraska, USA — Yesterday and Last 2 Weeks

Now
55 °F

Clear.


Feels Like: 55 °F
Forecast: 49 / 71 °F
Wind: No wind

Location: Millard Airport

Current Time: Sep 29, 2016 at 10:27:49 PM

Latest Report: Sep 29, 2016 at 9:55 PM


Visibility: 10 mi

Pressure: 30.34 "Hg

Humidity: 86%

Dew Point: 51 °F

Location of OmahaLocation

Past Weather in Omaha — Graph

°F

Omaha Temperature Yesterday

Maximum temperature yesterday: 65 °F (at 4:35 PM)
Minimum temperature yesterday: 47 °F (at 7:35 AM)
Average temperature yesterday: 58 °F

High & Low Weather Summary for the Past Weeks

 TemperatureHumidityPressure
High92 °F (Sep 20, 4:55 PM)97% (Sep 17, 1:15 AM)30.45 "Hg (Sep 17, 1:15 AM)
Low46 °F (Sep 26, 7:35 AM)28% (Sep 26, 4:55 PM)29.82 "Hg (Sep 18, 5:55 PM)
Average70 °F72%30.02 "Hg
* Reported Sep 14 9:35 PM — Sep 29 9:15 PM, Omaha, Weather by CustomWeather, © 2016

Note: Actual official high and low records may vary slightly from our data, if they occured in-between our weather recording intervals... More about our weather records

Advertising

Omaha Weather History for the Previous 24 Hours

Scroll right to see more
 ConditionsComfort  
Time TempWeatherWind HumidityBarometerVisibility
9:15 PM
Thu, Sep 29
56 °FClear.No wind86%30.33 "Hg10 mi
8:55 PM57 °FClear.No wind83%30.33 "Hg10 mi
8:35 PM58 °FClear.No wind79%30.33 "Hg10 mi
8:15 PM58 °FClear.No wind80%30.32 "Hg10 mi
7:55 PM59 °FClear.No wind75%30.32 "Hg10 mi
7:15 PM64 °FClear.No wind61%30.31 "Hg10 mi
6:55 PM68 °FSunny.No wind49%30.32 "Hg10 mi
6:35 PM69 °FSunny.No wind46%30.32 "Hg10 mi
6:15 PM70 °FSunny.No wind46%30.32 "Hg10 mi
5:55 PM70 °FSunny.No wind46%30.33 "Hg10 mi
5:35 PM70 °FSunny.No wind48%30.33 "Hg10 mi
5:15 PM70 °FScattered clouds.3 mph47%30.33 "Hg10 mi
4:55 PM70 °FScattered clouds.3 mph48%30.33 "Hg10 mi
4:15 PM70 °FScattered clouds.No wind49%30.35 "Hg10 mi
3:55 PM69 °FPartly sunny.6 mph50%30.35 "Hg10 mi
3:35 PM69 °FScattered clouds.5 mph50%30.36 "Hg10 mi
3:15 PM69 °FScattered clouds.No wind51%30.37 "Hg7 mi
2:55 PM69 °FSunny.5 mph52%30.37 "Hg10 mi
2:15 PM67 °FScattered clouds.No wind53%30.38 "Hg10 mi
1:55 PM67 °FScattered clouds.6 mph51%30.39 "Hg10 mi
1:35 PM66 °FScattered clouds.3 mph52%30.41 "Hg10 mi
1:15 PM66 °FScattered clouds.No wind56%30.41 "Hg10 mi
12:55 PM66 °FScattered clouds.No wind60%30.42 "Hg10 mi
12:35 PM65 °FSunny.5 mph64%30.43 "Hg10 mi
12:15 PM64 °FScattered clouds.3 mph66%30.43 "Hg10 mi
11:55 AM63 °FScattered clouds.3 mph68%30.44 "Hg10 mi
11:35 AM62 °FScattered clouds.6 mph71%30.44 "Hg10 mi
11:15 AM60 °FSunny.5 mph73%30.45 "Hg10 mi
10:55 AM59 °FSunny.No wind75%30.45 "Hg10 mi
10:35 AM58 °FSunny.3 mph78%30.45 "Hg10 mi
10:15 AM57 °FSunny.No wind78%30.45 "Hg10 mi
9:55 AM56 °FSunny.No wind80%30.45 "Hg10 mi
9:35 AM55 °FSunny.No wind82%30.45 "Hg10 mi
9:15 AM54 °FSunny.No wind83%30.45 "Hg10 mi
8:55 AM53 °FSunny.3 mph85%30.44 "Hg10 mi
8:35 AM51 °FSunny.3 mph86%30.44 "Hg10 mi
8:15 AM50 °FSunny.3 mph89%30.43 "Hg10 mi
7:55 AM48 °FSunny.No wind91%30.42 "Hg10 mi
7:15 AM47 °FClear.No wind92%30.41 "Hg10 mi
6:55 AM47 °FClear.No wind93%30.41 "Hg10 mi
6:15 AM47 °FClear.6 mph91%30.40 "Hg10 mi
5:55 AM47 °FClear.5 mph91%30.39 "Hg10 mi
5:15 AM47 °FClear.3 mph92%30.38 "Hg10 mi
4:55 AM48 °FClear.5 mph90%30.38 "Hg10 mi
4:10 AM48 °FClear.3 mph90%30.37 "Hg10 mi
3:55 AM49 °FClear.3 mph88%30.37 "Hg10 mi
3:35 AM49 °FClear.7 mph87%30.37 "Hg10 mi
3:15 AM49 °FClear.3 mph87%30.37 "Hg10 mi
2:55 AM49 °FClear.5 mph88%30.36 "Hg10 mi
2:35 AM49 °FClear.5 mph89%30.36 "Hg10 mi
2:15 AM50 °FClear.6 mph88%30.35 "Hg10 mi
1:55 AM50 °FClear.3 mph86%30.35 "Hg10 mi
1:35 AM51 °FClear.6 mph86%30.35 "Hg10 mi
1:15 AM51 °FClear.5 mph85%30.35 "Hg10 mi
12:55 AM52 °FClear.3 mph83%30.35 "Hg10 mi
12:15 AM51 °FClear.No wind88%30.35 "Hg10 mi
11:55 PM
Wed, Sep 28
53 °FClear.3 mph83%30.34 "Hg10 mi
11:15 PM52 °FClear.No wind88%30.33 "Hg10 mi
10:55 PM54 °FClear.No wind81%30.33 "Hg10 mi
10:35 PM55 °FClear.No wind75%30.33 "Hg10 mi
10:15 PM56 °FClear.No wind71%30.32 "Hg10 mi
Weather by CustomWeather, © 2016

See weather overviewHow to use our weather pages